Overview Statistics Trail Chart Weather Telemetry Raw packets
 

This is the latest recevied weather packets stored in our database for station/object KC5TIL. If no packets are shown the sender has not sent any weather packets the latest 10 day(s).

<< 90 91 92 93 94 95 96 >>
Time Temp. Humidity Pressure Rain* Wind** Luminosity Snow
1787940266 37.22° C 41% 1018.5 hPa 0 mm - 658 W/m² -
1787939961 36.67° C 41% 1018.6 hPa 0 mm - 660 W/m² -
1787939660 37.22° C 43% 1018.5 hPa 0 mm - 668 W/m² -
1787939355 37.22° C 45% 1018.6 hPa 0 mm - 679 W/m² -
1787939050 36.67° C 47% 1018.6 hPa 0 mm - 698 W/m² -
1787938749 36.11° C 48% 1018.6 hPa 0 mm - 666 W/m² -
1787938446 36.67° C 47% 1018.7 hPa 0 mm - 684 W/m² -
1787938141 36.67° C 46% 1018.9 hPa 0 mm - 682 W/m² -
1787937835 35.56° C 47% 1018.8 hPa 0 mm - 695 W/m² -
1787937532 36.11° C 47% 1018.9 hPa 0 mm - 709 W/m² -
1787937228 36.67° C 48% 1019 hPa 0 mm - 711 W/m² -
1787936923 36.67° C 46% 1019.1 hPa 0 mm - 752 W/m² -
1787936621 36.67° C 47% 1019.2 hPa 0 mm - 746 W/m² -
1787936321 35.56° C 50% 1019 hPa 0 mm - 755 W/m² -
1787936017 35.56° C 50% 1019.2 hPa 0 mm - 755 W/m² -
1787935712 36.11° C 49% 1019.1 hPa 0 mm - 767 W/m² -
1787935408 35.56° C 48% 1019.2 hPa 0 mm - 750 W/m² -
1787935104 35.56° C 47% 1019 hPa 0 mm - 766 W/m² -
1787934800 35.56° C 50% 1019.1 hPa 0 mm - 791 W/m² -
1787934498 34.44° C 53% 1019.3 hPa 0 mm - 819 W/m² -
1787934193 35° C 56% 1019.3 hPa 0 mm - 788 W/m² -
1787933894 35° C 52% 1019.1 hPa 0 mm - 758 W/m² -
1787933586 34.44° C 55% 1019 hPa 0 mm - 758 W/m² -
1787933281 35° C 55% 1019.3 hPa 0 mm - 695 W/m² -
1787932980 34.44° C 55% 1019.1 hPa 0 mm - 689 W/m² -

* Rain latest hour (hover to see other rain measurements)
** Current wind speed in m/s (hover to see current wind gust speed)